Location: Unspecified
(43.4680°N, 87.1740°E)
Time: 05:11:35
(UTC+00:00)

IRIDIUM 114 - Pass Details

Date: 17 April 2021
Orbit: 776 x 779 km, 86.4° (Epoch: 17 May)

Event Time Altitude Azimuth Distance (km) Brightness Sun altitude
Exits shadow 14:41:27 29° 151° (SSE) 1,414 5.2 -17.9°
Maximum altitude 14:43:57 54° 88° (E) 945 4.4 -18.3°
Drops below altitude 10° 14:49:02 10° 12° (NNE) 2,341 7.1 -19.1°
Sets 14:51:26 0° 8° (N) 3,273 8.0 -19.4°
